NOAA 16 DEB

Satellite information

Favourite Embed

Satellite Type and Status

DEBRISIN ORBIT

Key statistics

Satellite NOAA 16 DEB at a glance.

Uptime

9165

Days in orbit

Revolutions

≈ 14.2

Per day

Orbit

SSO

Sun Synchronous Orbit

Inclination

98.7

Latest

Satellite identification and parameters

Extended collection of information and parameters for NOAA 16 DEB.

Object identification

Identified? True

Debris? True

Object name: NOAA 16 DEB

International designator: 2000-055HE

Object number (NORAD): 41302

Object ID (CCSDS): 41302

Country: UNITED STATES OF AMERICA (US)

Current information (Y/N): Y

RCS size: SMALL

Orbital parameters

Period: 101.162 minutes

Inclination: 98.7255 deg

SMA: 7191.833 km

Apoapsis: 830.079 km

Periapsis: 797.317 km

RAAN: 356.1341 deg

Eccentricy: 0.00227772

Argument of periapsis: 168.781 deg

Mean anomaly: 191.388 deg

Mean motion: 14.23453885 rev/day

Mean motion (dot): 0.00005555 rev/day2

B* drag term: 0.0024563213 1/REarth

Two-line elements (TLE)

Creation date: Oct. 25, 2025, 3:11 a.m.

Reference frame: TEME

Reference center: EARTH

Epoch: Oct. 24, 2025, 10:10 a.m. UTC

TLE line 0: 0 NOAA 16 DEB

TLE line 1: 1 41302U 00055HE 25297.42362423 .00005555 00000-0 24563-2 0 9993

TLE line 2: 2 41302 98.7255 356.1341 0022777 168.7810 191.3880 14.23453885505448

Live tracking on map

Real-time ground track for satellite NOAA 16 DEB.

In-orbit conjunctions

A list of the most updated potential collisions computed for object NOAA 16 DEB.

Target Orbit TCA Probability of collision Miss distance Type
COSMOS 1697 LEO 2025-01-30 02:13:30 0.0001779575 67.0 (m) PAYLOAD
COSMOS 1275 DEB LEO 2024-11-11 05:35:11 0.0001964444 314.0 (m) DEBRIS

Associated space launch

The NOAA K, L and M POES satellites begin the fifth generation of improved environmental monitoring in support of NOAA missions. The instrument payload has significant improvements and additions/deletions. The instrument changes have effected the spacecraft subsystems and data formats.

NOAA 16 DEB was lifted into orbit during the mission ‘Titan II SLV | NOAA 16’, on board a Titan II SLV space rocket.

The launch took place on Sept. 21, 2000, 10:22 a.m. from Space Launch Complex 4W.

For more information about the launch, click the button.

Launch to space Titan II SLV | NOAA 16
Titan II SLV | NOAA 16

Agency: N/A

Status: Launch Successful

Launch date: Sept. 21, 2000, 10:22 a.m. UTC

Rocket: Titan II SLV

Launch pad: Space Launch Complex 4W

Location: Vandenberg SFB, CA, USA

...

Latest news about this satellite

There are no fresh news available about this satellite. Check back as we update our databases every day.


Newsletter sign-up

Weekly statistics, charts and insights to help you stay on top of the space industry.